EW8881 Weather Reports


Display with metric or nautical units.
time (UTC)temp
F
wind
direction
speed
MPH
gust
MPH
rain 1hr
in
rain 24hr
in
rain mn
in
humidity
%
barometer
mb
20260506033420 67 34 1.0 7.0 0.00 0.00 0.00 73 1007.9
20260506032921 67 237 1.0 7.0 0.00 0.00 0.00 73 1008.0
20260506032420 68 196 1.0 5.0 0.00 0.00 0.00 73 1007.8
20260506031920 68 256 1.0 5.0 0.00 0.00 0.00 73 1007.8
20260506031426 68 218 1.0 5.0 0.00 0.00 0.00 73 1007.5
20260506031421 68 132 1.0 5.0 0.00 0.00 0.00 73 1007.7
20260506030420 69 213 1.0 5.0 0.00 0.00 0.00 72 1007.6
20260506025922 69 245 0.0 5.0 0.00 0.00 0.00 71 1007.4
20260506025918 69 63 0.0 5.0 0.00 0.00 0.00 72 1007.6
20260506024923 69 49 1.0 7.0 0.00 0.00 0.00 71 1007.4
20260506024918 69 201 0.0 3.0 0.00 0.00 0.00 71 1007.4
20260506023918 69 257 1.0 7.0 0.00 0.00 0.00 71 1007.2
20260506023419 69 225 1.0 4.0 0.00 0.00 0.00 70 1007.1
20260506023032 70 238 1.0 4.0 0.00 0.00 0.00 69 1006.9
20260506022922 70 169 1.0 4.0 0.00 0.00 0.00 69 1007.0
20260506022918 69 265 1.0 4.0 0.00 0.00 0.00 70 1007.1
20260506021422 70 323 1.0 6.0 0.00 0.00 0.00 68 1006.6
20260506021416 70 290 1.0 5.0 0.00 0.00 0.00 69 1006.7
20260506020916 70 253 1.0 6.0 0.00 0.00 0.00 69 1006.6
20260506015916 71 226 1.0 6.0 0.00 0.00 0.00 68 1006.4
20260506015416 71 203 1.0 6.0 0.00 0.00 0.00 69 1006.1
20260506014920 72 236 1.0 7.0 0.00 0.00 0.00 68 1005.6
20260506014916 71 252 1.0 7.0 0.00 0.00 0.00 69 1006.0
20260506014535 72 252 0.0 5.0 0.00 0.00 0.00 67 1005.7
20260506014530 72 250 0.0 3.0 0.00 0.00 0.00 68 1005.7
20260506013416 72 63 0.0 5.0 0.00 0.00 0.00 68 1005.7
20260506013029 73 207 1.0 6.0 0.00 0.00 0.00 67 1005.4
20260506012528 73 285 1.0 6.0 0.00 0.00 0.00 67 1005.5
20260506011415 73 278 0.0 4.0 0.00 0.00 0.00 67 1005.3
20260506010914 73 148 0.0 3.0 0.00 0.00 0.00 66 1005.3
20260506010414 74 236 1.0 4.0 0.00 0.00 0.00 66 1005.4
20260506005919 74 352 0.0 4.0 0.00 0.00 0.00 66 1005.2
20260506005914 74 79 0.0 4.0 0.00 0.00 0.00 65 1005.4
20260506004915 75 259 1.0 6.0 0.00 0.00 0.00 66 1005.1
20260506004412 75 295 1.0 6.0 0.00 0.00 0.00 65 1005.2
20260506003912 76 205 1.0 4.0 0.00 0.00 0.00 64 1005.0
20260506003413 76 247 1.0 5.0 0.00 0.00 0.00 64 1004.5
20260506002911 77 91 1.0 5.0 0.00 0.00 0.00 64 1004.5
20260506002411 78 89 1.0 5.0 0.00 0.00 0.00 63 1004.6
20260506001913 78 311 1.0 5.0 0.00 0.00 0.00 62 1004.4
20260506001417 79 68 1.0 5.0 0.00 0.00 0.00 60 1004.3
20260506001413 78 233 1.0 5.0 0.00 0.00 0.00 61 1004.3
20260506000412 79 238 1.0 6.0 0.00 0.00 0.00 59 1004.2
20260505235909 80 247 1.0 7.0 0.00 0.00 0.00 58 1004.3
20260505235411 80 235 1.0 7.0 0.00 0.00 0.00 59 1004.2
20260505234910 81 266 1.0 5.0 0.00 0.00 0.00 58 1004.1
20260505234411 81 180 1.0 4.0 0.00 0.00 0.00 58 1004.0
20260505233908 82 115 1.0 5.0 0.00 0.00 0.00 57 1003.9
20260505233408 82 191 1.0 6.0 0.00 0.00 0.00 55 1003.9
20260505232908 83 50 1.0 6.0 0.00 0.00 0.00 55 1003.8
20260505232410 83 248 1.0 6.0 0.00 0.00 0.00 55 1003.8
20260505231907 84 79 2.0 8.0 0.00 0.00 0.00 54 1004.0
20260505231406 84 225 2.0 8.0 0.00 0.00 0.00 53 1003.8
20260505230909 87 219 2.0 13.0 0.00 0.00 0.00 51 1003.5
20260505230904 86 276 3.0 13.0 0.00 0.00 0.00 52 1003.7
20260505225910 88 262 1.0 8.0 0.00 0.00 0.00 48 1003.4
20260505225904 88 103 1.0 9.0 0.00 0.00 0.00 50 1003.7
20260505225405 88 167 1.0 9.0 0.00 0.00 0.00 51 1003.5
20260505224404 89 226 1.0 8.0 0.00 0.00 0.00 47 1003.2
20260505223905 90 47 1.0 8.0 0.00 0.00 0.00 46 1003.1
20260505223403 90 265 1.0 8.0 0.00 0.00 0.00 44 1003.2
20260505222902 91 107 1.0 4.0 0.00 0.00 0.00 43 1003.1
20260505222401 91 241 1.0 5.0 0.00 0.00 0.00 42 1003.1
20260505221859 92 108 2.0 7.0 0.00 0.00 0.00 42 1003.0
20260505221359 92 103 2.0 7.0 0.00 0.00 0.00 43 1002.9
20260505220900 92 293 1.0 6.0 0.00 0.00 0.00 42 1002.9
20260505220401 92 283 2.0 8.0 0.00 0.00 0.00 42 1002.8
20260505215900 93 232 1.0 8.0 0.00 0.00 0.00 41 1002.8
20260505215401 95 25 1.0 9.0 0.00 0.00 0.00 42 1002.8
20260505214900 96 277 1.0 9.0 0.00 0.00 0.00 40 1002.8
20260505214359 97 207 0.0 4.0 0.00 0.00 0.00 42 1002.9
20260505213858 96 210 0.0 2.0 0.00 0.00 0.00 43 1002.8
20260505213359 96 233 0.0 3.0 0.00 0.00 0.00 41 1002.8
20260505212901 95 226 1.0 4.0 0.00 0.00 0.00 43 1002.8
20260505212857 94 274 1.0 8.0 0.00 0.00 0.00 41 1002.7
20260505211901 95 290 1.0 7.0 0.00 0.00 0.00 41 1002.9
20260505211856 94 256 1.0 8.0 0.00 0.00 0.00 42 1002.8
20260505211510 95 278 1.0 6.0 0.00 0.00 0.00 43 1003.1
20260505210855 95 210 1.0 6.0 0.00 0.00 0.00 41 1003.1
20260505205855 95 238 1.0 6.0 0.00 0.00 0.00 44 1003.1
20260505205356 95 252 1.0 5.0 0.00 0.00 0.00 45 1003.1
20260505204859 94 189 1.0 9.0 0.00 0.00 0.00 43 1003.3
20260505204855 94 244 1.0 9.0 0.00 0.00 0.00 45 1003.3
20260505203853 94 229 1.0 9.0 0.00 0.00 0.00 45 1003.4
20260505203352 94 254 1.0 9.0 0.00 0.00 0.00 46 1003.4
20260505202851 94 225 1.0 7.0 0.00 0.00 0.00 45 1003.4
20260505202351 94 263 1.0 6.0 0.00 0.00 0.00 47 1003.4
20260505201852 94 231 1.0 5.0 0.00 0.00 0.00 46 1003.7
20260505201352 94 141 1.0 7.0 0.00 0.00 0.00 47 1003.7
20260505200857 93 296 1.0 7.0 0.00 0.00 0.00 52 1003.7
20260505200852 94 168 1.0 7.0 0.00 0.00 0.00 49 1003.6
20260505200351 94 231 1.0 7.0 0.00 0.00 0.00 46 1003.7
20260505195852 94 239 1.0 7.0 0.00 0.00 0.00 51 1003.7
20260505194851 93 230 1.0 5.0 0.00 0.00 0.00 51 1003.7
20260505194352 93 253 0.0 5.0 0.00 0.00 0.00 51 1003.8
20260505193851 93 98 1.0 4.0 0.00 0.00 0.00 53 1003.7
20260505193356 92 253 1.0 8.0 0.00 0.00 0.00 54 1003.8
20260505193352 92 232 1.0 8.0 0.00 0.00 0.00 54 1003.7
20260505192351 92 214 1.0 5.0 0.00 0.00 0.00 53 1003.9
20260505191851 91 238 1.0 6.0 0.00 0.00 0.00 53 1003.8
20260505191353 91 230 1.0 6.0 0.00 0.00 0.00 56 1003.8
20260505190851 90 24 1.0 7.0 0.00 0.00 0.00 54 1003.9
20260505190351 90 240 1.0 7.0 0.00 0.00 0.00 56 1003.8
20260505185851 89 297 2.0 7.0 0.00 0.00 0.00 58 1003.9
20260505185352 89 239 2.0 6.0 0.00 0.00 0.00 59 1003.9
20260505184853 89 250 1.0 6.0 0.00 0.00 0.00 58 1003.9
20260505184354 88 234 2.0 6.0 0.00 0.00 0.00 60 1004.0
20260505184350 88 204 1.0 5.0 0.00 0.00 0.00 58 1004.0
20260505183350 87 206 3.0 8.0 0.00 0.00 0.00 59 1004.0
20260505182849 87 219 2.0 8.0 0.00 0.00 0.00 59 1004.1
20260505182350 87 250 1.0 6.0 0.00 0.00 0.00 59 1004.1
20260505181856 87 232 2.0 9.0 0.00 0.00 0.00 61 1004.2
20260505181849 87 275 2.0 6.0 0.00 0.00 0.00 60 1004.1
20260505180851 86 224 3.0 9.0 0.00 0.00 0.00 60 1004.1
20260505180349 86 76 2.0 8.0 0.00 0.00 0.00 60 1004.1
20260505175852 86 309 2.0 9.0 0.00 0.00 0.00 63 1004.2
20260505175353 86 215 2.0 9.0 0.00 0.00 0.00 62 1004.3
20260505174850 85 177 2.0 9.0 0.00 0.00 0.00 63 1004.2
20260505174349 85 236 3.0 9.0 0.00 0.00 0.00 63 1004.2
20260505173849 86 208 3.0 8.0 0.00 0.00 0.00 61 1004.3
20260505173350 86 240 2.0 8.0 0.00 0.00 0.00 61 1004.3
20260505172848 87 238 1.0 6.0 0.00 0.00 0.00 61 1004.3
20260505172348 86 200 1.0 5.0 0.00 0.00 0.00 62 1004.3
20260505171851 85 243 2.0 7.0 0.00 0.00 0.00 63 1004.3
20260505171846 85 210 2.0 7.0 0.00 0.00 0.00 64 1004.2
20260505170843 85 217 2.0 7.0 0.00 0.00 0.00 63 1004.3
20260505170351 85 177 2.0 10.0 0.00 0.00 0.00 64 1004.3
20260505170344 85 225 2.0 7.0 0.00 0.00 0.00 63 1004.3
20260505165341 85 217 2.0 10.0 0.00 0.00 0.00 63 1004.2
20260505164838 85 266 2.0 9.0 0.00 0.00 0.00 64 1004.2
20260505164338 84 137 3.0 9.0 0.00 0.00 0.00 66 1004.3
20260505163841 83 323 2.0 8.0 0.00 0.00 0.00 66 1004.3
20260505163837 83 167 3.0 9.0 0.00 0.00 0.00 66 1004.3
20260505162841 83 252 2.0 10.0 0.00 0.00 0.00 67 1004.1
20260505162837 83 240 2.0 8.0 0.00 0.00 0.00 66 1004.1
20260505161837 83 245 3.0 10.0 0.00 0.00 0.00 69 1004.2
20260505161335 82 238 3.0 8.0 0.00 0.00 0.00 68 1004.2
20260505160835 82 347 3.0 12.0 0.00 0.00 0.00 69 1004.2
20260505160335 82 314 3.0 12.0 0.00 0.00 0.00 69 1004.0
20260505153331 79 79 2.0 9.0 0.00 0.00 0.00 73 1003.7
20260505152831 79 203 2.0 9.0 0.00 0.00 0.00 74 1003.7
20260505152331 79 252 2.0 9.0 0.00 0.00 0.00 73 1003.8
20260505151831 79 136 2.0 8.0 0.00 0.00 0.00 74 1003.9
20260505151335 78 178 2.0 9.0 0.00 0.00 0.00 76 1003.9
20260505151331 78 83 2.0 6.0 0.00 0.00 0.00 75 1003.9
20260505150330 77 153 3.0 9.0 0.00 0.00 0.00 77 1003.9
20260505124326 70 229 2.0 7.0 0.00 0.00 0.00 84 1003.3
20260505124321 71 219 1.0 7.0 0.00 0.00 0.00 84 1003.4
20260505123321 70 214 1.0 6.0 0.00 0.00 0.00 84 1003.2
20260505122821 70 231 1.0 5.0 0.00 0.00 0.00 84 1003.1
20260505122322 70 263 1.0 8.0 0.00 0.00 0.00 84 1003.1
20260505121822 70 188 2.0 8.0 0.00 0.00 0.00 84 1003.1
20260505121321 70 230 1.0 8.0 0.00 0.00 0.00 84 1002.9
20260505120821 70 210 1.0 6.0 0.00 0.00 0.00 84 1002.9
20260505120320 70 237 2.0 7.0 0.00 0.00 0.00 84 1002.7
20260505115824 70 214 2.0 7.0 0.00 0.00 0.00 84 1002.9
20260505115819 70 258 2.0 7.0 0.00 0.00 0.00 84 1002.8
20260505114936 70 215 2.0 8.0 0.00 0.00 0.00 84 1002.9
20260505114824 70 212 2.0 8.0 0.00 0.00 0.00 84 1002.9
20260505114819 70 243 1.0 6.0 0.00 0.00 0.00 84 1003.0
20260505113319 70 240 1.0 7.0 0.00 0.00 0.00 84 1002.8
20260505112820 70 207 1.0 5.0 0.00 0.00 0.00 84 1002.8
20260505112320 70 226 1.0 5.0 0.00 0.00 0.00 84 1002.8
20260505111820 70 175 1.0 5.0 0.00 0.00 0.00 84 1002.7
20260505111320 70 167 2.0 8.0 0.00 0.00 0.00 85 1002.8
20260505110818 70 200 1.0 8.0 0.00 0.00 0.00 85 1002.8
20260505110317 70 221 2.0 9.0 0.00 0.00 0.00 85 1002.8
20260505101815 71 236 1.0 6.0 0.00 0.00 0.00 85 1002.9
20260505101315 71 188 2.0 9.0 0.00 0.00 0.00 85 1003.0
20260505100815 71 4 2.0 9.0 0.00 0.00 0.00 85 1002.9
20260505100315 71 160 3.0 9.0 0.00 0.00 0.00 85 1002.8
20260505095814 71 212 2.0 8.0 0.00 0.00 0.00 85 1002.8
20260505095314 71 237 1.0 8.0 0.00 0.00 0.00 85 1002.9
20260505094810 71 172 2.0 11.0 0.00 0.00 0.00 85 1002.9
20260505094314 71 291 2.0 11.0 0.00 0.00 0.00 85 1002.6
20260505094309 71 257 2.0 10.0 0.00 0.00 0.00 85 1002.8
20260505093306 71 182 2.0 10.0 0.00 0.00 0.00 85 1003.0
20260505092807 71 195 2.0 11.0 0.00 0.00 0.00 84 1003.1
20260505092305 71 238 2.0 11.0 0.00 0.00 0.00 84 1003.0
20260505091808 71 211 2.0 6.0 0.00 0.00 0.00 84 1003.2
20260505091804 71 155 2.0 6.0 0.00 0.00 0.00 84 1003.1
20260505090802 72 202 2.0 9.0 0.00 0.00 0.00 84 1003.3
20260505090300 72 272 2.0 9.0 0.00 0.00 0.00 84 1003.3
20260505085800 72 207 2.0 11.0 0.00 0.00 0.00 83 1003.3
20260505085304 72 235 2.0 11.0 0.00 0.00 0.00 83 1003.3
20260505084801 72 233 2.0 10.0 0.00 0.00 0.00 83 1003.3
20260505084259 72 341 3.0 10.0 0.00 0.00 0.00 83 1003.3
20260505083758 72 217 3.0 12.0 0.00 0.00 0.00 83 1003.3
20260505083258 72 293 3.0 12.0 0.00 0.00 0.00 83 1003.3
20260505082755 72 297 2.0 10.0 0.00 0.00 0.00 83 1003.3
20260505082255 72 234 2.0 8.0 0.00 0.00 0.00 82 1003.3
20260505081755 72 271 2.0 13.0 0.00 0.00 0.00 82 1003.2
20260505081256 72 226 3.0 13.0 0.00 0.00 0.00 82 1003.2
20260505080752 73 214 2.0 11.0 0.00 0.00 0.00 82 1003.3
20260505080253 73 192 2.0 10.0 0.00 0.00 0.00 81 1003.3
20260505075759 73 86 2.0 10.0 0.00 0.00 0.00 80 1003.4
20260505075754 73 120 2.0 10.0 0.00 0.00 0.00 81 1003.2
20260505074753 73 228 2.0 10.0 0.00 0.00 0.00 80 1003.4
20260505074252 73 172 2.0 11.0 0.00 0.00 0.00 80 1003.5
20260505073752 73 186 2.0 11.0 0.00 0.00 0.00 79 1003.6
20260505073252 73 259 1.0 8.0 0.00 0.00 0.00 79 1003.7
20260505072752 73 229 2.0 10.0 0.00 0.00 0.00 79 1003.8
20260505072253 73 234 2.0 10.0 0.00 0.00 0.00 78 1004.0
20260505071752 73 216 2.0 10.0 0.00 0.00 0.00 78 1004.1
20260505071250 74 225 2.0 10.0 0.00 0.00 0.00 77 1004.2
20260505070750 74 100 1.0 7.0 0.00 0.00 0.00 77 1004.2
20260505070250 74 236 1.0 7.0 0.00 0.00 0.00 77 1004.3
20260505065750 74 264 2.0 9.0 0.00 0.00 0.00 77 1004.4
20260505065255 74 215 2.0 7.0 0.00 0.00 0.00 76 1004.5
20260505065250 74 219 1.0 9.0 0.00 0.00 0.00 76 1004.4
20260505064250 74 239 2.0 7.0 0.00 0.00 0.00 75 1004.6
20260505063750 74 182 3.0 9.0 0.00 0.00 0.00 75 1004.5
20260505063254 74 196 2.0 10.0 0.00 0.00 0.00 74 1004.7
20260505063250 74 252 2.0 9.0 0.00 0.00 0.00 75 1004.6
20260505062249 74 290 2.0 10.0 0.00 0.00 0.00 74 1004.6
20260505061748 75 313 2.0 9.0 0.00 0.00 0.00 73 1004.6
20260505061248 75 241 2.0 9.0 0.00 0.00 0.00 73 1004.6
20260505060749 75 217 2.0 9.0 0.00 0.00 0.00 72 1004.7
20260505060248 75 231 3.0 9.0 0.00 0.00 0.00 72 1004.7
20260505055753 75 216 1.0 9.0 0.00 0.00 0.00 71 1004.7
20260505055748 75 154 2.0 9.0 0.00 0.00 0.00 71 1004.7
20260505054747 76 198 3.0 11.0 0.00 0.00 0.00 70 1004.5
20260505054248 76 226 3.0 12.0 0.00 0.00 0.00 70 1004.5
20260505053747 76 222 3.0 12.0 0.00 0.00 0.00 69 1004.4
20260505053250 76 238 3.0 10.0 0.00 0.00 0.00 69 1004.4
20260505053246 76 223 3.0 10.0 0.00 0.00 0.00 69 1004.4
20260505052247 76 1 3.0 10.0 0.00 0.00 0.00 69 1004.4
20260505051748 76 220 3.0 10.0 0.00 0.00 0.00 70 1004.4
20260505051247 76 223 3.0 11.0 0.00 0.00 0.00 70 1004.5
20260505050747 76 231 2.0 11.0 0.00 0.00 0.00 71 1004.6
20260505050247 75 300 1.0 10.0 0.00 0.00 0.00 71 1004.8
20260505041744 75 236 1.0 5.0 0.00 0.00 0.00 72 1004.9
20260505041243 75 237 1.0 6.0 0.00 0.00 0.00 72 1005.0
20260505040744 75 236 1.0 6.0 0.00 0.00 0.00 72 1004.9
20260505040244 75 198 2.0 12.0 0.00 0.00 0.00 71 1004.9
20260505035745 75 221 2.0 12.0 0.00 0.00 0.00 71 1004.9
20260505035243 75 309 2.0 11.0 0.00 0.00 0.00 71 1004.9
20260505034747 75 67 3.0 9.0 0.00 0.00 0.00 71 1004.9
20260505034743 75 224 2.0 8.0 0.00 0.00 0.00 71 1004.9
20260505033742 75 208 3.0 9.0 0.00 0.00 0.00 71 1004.8